Theta_e
333 338 347 347 344 341 346 346 346 348 347 346 346 346 346 346 345 344 344 341 340 339 338 337 337 337 336 336 334 335 335 336 336 336 334 334 336 334 334 336 338 330 335
335 340 345 347 345 343 346 345 345 345 345 346 345 345 344 344 343 342 342 342 338 336 336 336 336 335 336 336 335 334 333 334 334 334 333 332 334 333 334 334 337 331 335
337 340 343 345 346 346 347 344 345 343 344 344 343 344 344 342 340 339 340 340 338 336 335 336 336 335 335 334 335 334 333 333 333 333 332 324 326 333 333 332 332 334 334
338 341 342 343 346 346 345 345 343 342 340 340 340 341 342 340 338 338 338 340 336 336 333 334 335 335 334 335 335 334 333 332 331 329 323 324 326 333 333 332 332 332 334
337 340 341 343 346 346 345 344 343 341 338 337 337 337 338 339 336 337 337 339 340 339 334 333 333 333 332 333 335 334 333 331 329 325 322 323 323 330 332 331 330 330 330
336 338 341 344 346 346 345 344 342 340 338 336 336 336 336 339 339 338 336 336 336 334 334 332 330 330 330 331 331 331 331 330 324 318 319 323 322 331 332 331 330 330 330
335 337 341 343 345 345 345 343 342 341 340 339 339 339 339 338 335 338 335 335 333 333 332 331 329 329 328 328 328 327 327 326 318 317 318 319 320 329 330 330 330 330 329
336 337 340 337 340 342 343 342 341 340 340 339 338 337 337 334 333 335 334 333 332 332 331 330 329 328 327 326 326 325 324 323 315 315 317 319 326 330 328 328 327 328 328
336 338 339 338 337 336 338 339 339 339 339 338 338 336 334 332 333 333 332 334 330 330 331 330 329 328 327 327 327 327 325 324 311 312 314 317 324 330 329 330 329 328 328
335 336 337 335 336 336 335 332 333 335 336 336 334 332 330 330 330 331 328 331 332 331 330 328 327 327 328 328 328 327 325 321 312 312 313 312 325 328 329 328 330 331 331
331 334 335 336 333 333 333 330 329 330 332 331 329 326 324 323 324 324 325 330 332 332 329 328 327 328 329 325 324 324 322 316 314 314 313 318 324 328 329 329 328 330 330
327 331 333 333 334 332 335 329 328 329 328 325 324 323 322 321 322 324 321 325 330 329 331 331 331 330 324 318 317 319 316 316 315 315 314 321 326 330 330 331 330 329 330
328 331 332 332 334 332 333 330 326 325 323 323 322 320 319 320 318 319 318 318 319 319 321 324 322 320 319 317 317 316 316 315 315 315 316 321 326 329 331 332 332 332 331
327 329 331 332 332 332 331 329 326 325 321 320 321 320 318 317 316 316 316 316 316 317 317 317 316 316 316 317 317 317 317 316 315 316 316 319 323 328 330 331 332 333 333
326 329 330 331 332 333 329 328 326 325 322 321 321 320 319 317 316 316 316 316 315 316 315 315 315 315 315 316 317 317 317 317 316 316 316 316 320 326 330 332 333 334 334
328 328 330 331 331 331 329 327 327 325 324 322 321 322 320 319 317 317 316 316 316 316 316 316 315 315 315 315 316 317 317 317 317 318 318 318 321 324 328 331 333 334 335
328 330 330 330 331 329 328 327 327 326 325 323 322 322 322 321 318 318 317 316 316 317 316 316 316 316 315 316 315 317 317 318 318 318 319 319 320 320 323 329 332 334 335
328 328 330 332 330 329 328 326 326 325 325 325 323 323 323 323 321 319 317 317 318 317 317 316 315 315 315 314 314 316 317 318 319 319 320 320 320 321 321 325 328 331 333
326 326 327 329 328 329 328 327 325 325 324 324 323 323 323 323 322 320 319 319 319 318 317 316 316 314 314 314 315 316 316 317 318 321 319 320 320 320 320 321 322 322 326
325 326 327 328 328 327 328 326 324 324 324 324 323 323 324 324 323 321 320 320 320 318 318 317 316 315 315 315 316 319 316 318 319 319 320 321 320 319 318 318 317 316 319
323 324 326 326 327 327 325 323 323 323 325 326 327 327 326 325 324 323 322 321 320 320 320 319 317 315 315 315 316 315 315 317 317 318 317 317 316 317 317 317 317 316 316
324 324 325 326 327 327 327 327 325 325 326 328 330 330 329 328 327 326 325 322 322 321 320 319 318 317 316 316 316 316 312 310 310 311 311 313 313 314 315 316 316 314 313
324 324 324 326 326 328 328 326 327 326 325 325 325 327 328 328 327 326 325 325 323 323 322 321 319 320 320 316 318 318 312 306 304 310 311 312 312 312 314 314 313 312 311
324 326 326 325 326 328 327 327 327 327 324 323 324 325 326 326 325 325 325 325 324 323 323 323 322 323 322 321 317 318 321 317 313 313 309 312 312 312 312 315 311 309 308
317 322 323 324 324 325 327 329 328 327 327 327 327 327 326 326 325 325 325 324 324 324 324 324 324 323 324 323 322 319 318 319 319 315 313 316 310 310 308 308 310 307 305
307 313 315 313 312 320 324 325 326 326 327 327 327 326 326 327 328 328 328 328 328 327 327 326 325 326 325 324 324 323 321 318 316 316 314 315 315 318 310 307 307 306 306
Wind_Speed
7 8 15 18 17 16 14 14 13 16 15 16 14 16 16 17 16 16 15 16 16 15 15 15 16 16 15 14 14 14 13 14 15 15 15 14 14 16 15 13 12 8 15
10 9 16 18 17 16 15 14 14 14 15 15 14 14 15 15 15 14 14 13 15 15 14 14 14 14 13 12 10 10 12 13 13 13 13 12 13 14 14 12 12 11 13
13 9 13 17 17 16 16 15 13 14 14 14 13 13 14 14 12 12 12 13 12 15 13 12 13 13 12 10 9 10 11 11 11 11 11 6 6 13 12 12 12 12 12
12 9 11 15 17 18 17 16 14 14 13 12 11 11 12 12 12 11 11 12 11 14 12 11 11 11 11 11 10 11 10 10 10 9 5 5 5 11 11 11 11 11 11
9 7 11 15 17 18 17 15 14 13 12 12 11 11 10 10 12 9 10 10 12 14 12 11 10 10 11 12 12 9 10 9 8 6 5 4 4 7 9 9 9 9 9
8 7 13 16 18 18 16 16 15 14 13 12 11 11 11 11 14 11 7 9 9 12 10 9 8 9 9 10 11 9 6 7 6 4 4 5 4 6 7 7 7 7 7
8 7 11 15 17 17 15 15 14 14 13 10 10 9 10 8 10 11 9 9 7 8 7 7 7 8 8 9 9 9 8 6 4 4 4 4 5 5 5 5 5 6 6
13 7 7 11 14 15 15 15 13 13 13 11 10 6 10 10 9 11 10 8 7 6 5 5 6 7 8 8 8 8 8 7 4 3 3 4 7 5 4 3 3 4 4
13 10 6 7 9 11 11 12 12 12 11 10 12 9 9 9 7 8 6 8 5 5 3 4 5 6 7 7 9 9 8 7 4 3 4 3 7 8 6 4 4 4 3
13 11 11 5 6 6 7 11 11 11 11 10 11 9 8 6 5 2 5 4 7 4 2 3 3 5 6 8 8 8 8 7 4 4 3 3 8 8 8 6 6 5 5
12 11 12 9 5 6 6 7 10 10 10 10 8 10 7 3 3 4 5 5 4 3 2 2 3 3 4 6 7 8 7 2 3 3 3 7 9 10 10 9 8 7 7
13 12 10 12 9 7 7 7 6 6 5 5 6 7 5 4 4 4 4 5 5 5 5 5 4 4 4 2 3 5 3 4 3 4 3 9 9 10 10 10 8 9 9
12 8 9 12 12 9 7 5 3 3 3 3 6 6 5 4 3 2 2 1 2 3 2 2 2 2 3 3 3 3 4 4 3 3 5 10 10 11 11 11 10 10 10
14 12 10 13 12 9 5 5 4 4 4 3 4 6 4 3 4 4 3 4 3 2 3 3 2 4 5 5 5 5 5 4 3 3 4 10 11 11 12 12 12 12 11
16 14 13 13 12 10 7 4 4 4 4 5 4 5 4 4 4 3 4 3 3 3 3 3 3 4 5 5 5 5 6 6 6 3 3 9 11 12 12 13 13 13 13
15 15 15 13 9 7 7 6 5 4 4 4 4 5 7 5 4 4 3 4 3 3 3 4 4 4 4 4 5 5 6 6 6 6 4 4 10 12 13 13 14 14 15
13 14 15 15 11 10 8 6 5 4 4 4 4 5 6 5 5 5 4 4 4 3 5 3 4 3 4 3 6 5 5 6 6 6 5 4 5 9 11 13 14 15 15
11 13 11 9 11 10 9 6 4 4 4 4 4 4 6 6 6 5 4 4 4 4 3 3 3 3 4 4 4 5 4 5 7 7 6 5 5 4 5 11 13 15 16
11 10 10 9 10 11 8 6 5 6 5 5 4 4 6 6 6 5 4 4 4 3 4 4 4 3 3 4 4 5 5 6 7 7 8 8 7 6 4 7 10 11 14
10 10 11 10 10 8 4 4 3 3 3 3 4 4 6 6 6 6 4 5 4 3 4 3 5 4 4 4 4 6 5 6 7 8 8 7 6 7 6 6 5 5 10
10 12 13 12 11 9 5 3 3 4 4 5 6 8 7 6 6 7 5 4 4 5 5 5 2 4 3 3 3 4 4 7 6 6 4 4 5 6 6 5 4 3 4
14 15 14 14 12 11 8 6 4 4 4 5 7 8 8 8 8 7 7 6 6 5 5 5 5 2 3 4 3 2 5 5 3 3 3 3 6 4 5 5 5 5 4
14 17 15 13 12 12 11 5 3 3 1 2 2 3 6 8 8 8 8 7 7 6 6 6 5 8 7 3 7 4 2 5 2 3 3 3 4 3 4 4 5 5 5
15 12 13 12 12 12 11 9 12 9 7 4 4 3 4 6 6 7 8 8 7 5 6 6 5 8 6 8 2 6 7 3 5 8 2 4 5 5 5 4 5 5 6
5 8 8 9 8 6 9 10 8 7 3 2 1 3 3 4 5 5 5 5 5 4 6 7 6 7 7 7 6 3 6 7 9 9 11 8 2 4 4 5 6 5 6
5 5 8 10 6 6 6 6 6 5 4 3 3 3 3 3 3 4 5 5 5 7 7 7 8 9 8 7 7 8 7 6 3 7 8 9 9 8 5 5 6 7 7
Wind_Direction
169 158 150 144 135 134 122 116 111 127 118 114 103 99 97 97 92 92 90 88 87 82 85 86 86 82 79 76 73 65 66 64 57 59 70 70 70 66 62 63 54 50 69
143 149 150 146 139 138 128 117 110 107 112 110 101 95 95 91 92 96 98 94 93 85 84 91 91 87 73 67 68 72 76 75 69 55 43 55 72 65 64 59 56 72 64
142 145 145 147 142 142 130 124 118 112 107 106 110 101 101 99 98 98 94 90 91 91 88 90 88 81 69 57 63 92 85 74 67 57 45 23 39 67 63 64 65 56 64
141 140 144 145 143 137 136 131 127 123 120 119 115 111 107 105 100 98 105 105 104 100 92 93 90 79 67 56 68 102 88 72 66 61 43 33 19 65 67 66 62 56 40
138 131 141 145 145 141 139 134 130 128 128 126 129 125 123 117 108 99 101 79 112 104 93 90 87 77 70 67 68 87 82 75 60 53 45 36 14 70 72 71 62 56 51
133 121 144 147 148 145 143 141 140 138 136 135 138 139 133 149 122 116 113 105 97 91 91 86 81 74 68 67 69 65 76 73 62 41 28 11 7 60 66 70 71 68 57
136 131 148 150 148 148 149 148 148 142 141 137 142 142 128 128 133 124 111 99 109 94 90 79 68 59 56 56 56 51 47 54 52 30 14 359 342 34 44 46 47 50 50
152 139 146 144 149 153 153 152 151 146 139 143 130 142 125 148 149 143 133 124 114 101 89 67 48 37 34 33 36 38 31 32 30 1 346 335 320 340 11 21 26 28 30
153 156 136 143 151 152 153 150 149 151 146 149 143 129 131 160 154 156 148 125 132 112 77 48 28 20 13 12 12 12 12 13 12 343 329 310 307 317 326 323 329 336 341
160 162 169 136 148 149 152 152 155 156 155 152 145 141 152 146 154 176 116 140 87 103 44 18 5 359 354 354 353 349 348 3 354 328 313 292 293 297 306 308 302 290 289
172 169 169 169 151 146 148 159 157 159 157 158 152 155 150 135 183 154 153 162 153 161 213 261 289 305 331 348 341 340 341 328 322 308 303 298 304 294 296 304 299 294 293
180 177 172 174 169 157 164 159 162 166 163 161 164 163 150 154 169 169 169 196 205 205 221 238 258 290 347 325 315 327 315 306 289 286 276 292 298 296 285 290 293 284 285
176 178 180 181 176 167 171 168 160 156 159 168 174 166 165 149 146 148 167 215 211 242 237 271 294 296 287 281 294 290 289 296 284 283 282 285 289 292 286 280 285 283 279
180 182 179 186 181 177 161 173 171 166 169 173 182 177 163 170 179 178 187 209 215 227 235 235 248 265 271 264 259 274 275 273 265 264 266 275 283 285 288 282 279 280 279
192 186 188 191 185 182 172 171 169 185 181 178 174 179 172 183 205 194 207 203 211 196 215 246 255 268 274 279 277 268 276 272 271 264 263 267 273 280 281 281 280 279 278
197 194 195 195 186 181 184 174 183 168 179 182 188 191 184 186 193 202 222 224 235 210 217 224 244 266 272 281 288 278 271 274 270 269 260 264 265 271 274 274 275 276 276
197 195 194 196 182 180 192 185 170 177 181 193 193 195 197 190 199 202 215 225 237 226 237 236 253 251 271 271 270 275 270 269 267 268 267 259 262 259 264 273 275 275 273
183 188 188 190 188 184 189 178 176 178 182 197 192 188 202 197 197 211 216 230 217 215 215 237 237 255 248 254 271 276 280 278 272 266 262 257 249 256 259 259 267 275 277
188 183 179 182 194 194 185 181 181 185 191 196 188 192 202 204 200 206 219 234 216 216 220 218 241 210 243 251 255 260 257 264 266 267 257 254 246 238 236 250 253 261 270
181 185 184 185 183 187 187 169 168 171 200 179 199 202 205 207 197 197 212 225 212 230 233 230 234 233 238 250 266 270 253 253 251 258 266 269 264 253 239 234 237 241 250
183 180 190 186 183 171 162 162 180 208 206 206 200 210 207 205 205 204 210 207 207 217 232 214 217 243 278 231 285 281 261 249 255 253 240 251 264 269 273 260 244 243 244
188 194 192 193 182 182 186 186 166 167 207 206 198 199 203 203 205 210 214 209 209 226 223 217 195 230 228 188 245 274 315 324 331 286 283 262 266 265 258 249 250 244 233
196 194 195 188 181 185 187 162 135 125 112 147 213 187 196 195 201 203 208 212 209 206 228 215 205 215 255 211 210 211 276 247 307 268 251 250 279 273 269 272 252 242 230
205 192 188 175 177 188 179 187 197 199 200 196 184 194 208 210 212 205 211 211 214 209 226 228 210 227 223 254 199 235 248 260 280 297 264 251 222 252 243 236 238 231 220
162 177 161 157 158 158 175 194 200 206 156 157 161 236 236 246 233 222 214 210 224 215 239 239 227 233 229 246 244 217 224 239 243 255 280 285 255 244 236 231 232 232 222
101 117 121 119 108 124 158 154 179 187 177 177 200 229 249 243 240 230 217 228 231 235 236 239 237 245 238 236 247 248 242 247 226 241 254 258 257 265 223 228 233 232 225